Location: *
(43.9905°S, 176.4941°W)
Time: 09:13:11
(UTC+00:00)

Cosmos 2366 rocket - Pass Details

Date: 08 December 2019
Orbit: 956 x 996 km, 82.9° (Epoch: 28 January)

Event Time Altitude Azimuth Distance (km) Brightness Sun altitude
Rises 10:19:24 0° 185° (S) 3,754 8.5 -20.9°
Reaches altitude 10° 10:22:01 10° 181° (S) 2,796 7.4 -21.1°
Maximum altitude 10:28:20 57° 102° (ESE) 1,170 4.3 -21.4°
Enters shadow 10:30:43 37° 43° (NE) 1,508 4.5 -21.6°
